Year,Month,Day,Hour,Minute,Value (Times are PST for windspeed in km/hr)
2016,03,15,00,00,15.10
2016,03,15,00,01,14.90
2016,03,15,00,02,15.30
2016,03,15,00,03,14.90
2016,03,15,00,04,16.10
2016,03,15,00,05,11.40
2016,03,15,00,06,11.40
2016,03,15,00,07,11.80
2016,03,15,00,08,10.10
2016,03,15,00,09,13.80
2016,03,15,00,10,16.30
2016,03,15,00,11,14.50
2016,03,15,00,12,14.60
2016,03,15,00,13,14.40
2016,03,15,00,14,14.10
2016,03,15,00,15,14.70
2016,03,15,00,16,12.70
2016,03,15,00,17,11.80
2016,03,15,00,18,11.00
2016,03,15,00,19,13.50
2016,03,15,00,20,9.00
2016,03,15,00,21,10.60
2016,03,15,00,22,10.90
2016,03,15,00,23,13.70
2016,03,15,00,24,12.20
2016,03,15,00,25,19.30
2016,03,15,00,26,18.80
2016,03,15,00,27,16.30
2016,03,15,00,28,16.00
2016,03,15,00,29,11.30
2016,03,15,00,30,13.60
2016,03,15,00,31,14.70
2016,03,15,00,32,22.90
2016,03,15,00,33,23.10
2016,03,15,00,34,19.00
2016,03,15,00,35,15.10
2016,03,15,00,36,12.90
2016,03,15,00,37,15.30
2016,03,15,00,38,18.20
2016,03,15,00,39,15.20
2016,03,15,00,40,12.90
2016,03,15,00,41,13.70
2016,03,15,00,42,12.40
2016,03,15,00,43,10.80
2016,03,15,00,44,11.30
2016,03,15,00,45,20.00
2016,03,15,00,46,21.70
2016,03,15,00,47,17.40
2016,03,15,00,48,14.70
2016,03,15,00,49,22.10
2016,03,15,00,50,17.20
2016,03,15,00,51,16.10
2016,03,15,00,52,21.10
2016,03,15,00,53,17.30
2016,03,15,00,54,16.90
2016,03,15,00,55,15.40
2016,03,15,00,56,18.90
2016,03,15,00,57,15.90
2016,03,15,00,58,20.50
2016,03,15,00,59,20.10
2016,03,15,01,00,18.00
2016,03,15,01,01,14.70
2016,03,15,01,02,13.60
2016,03,15,01,03,12.00
2016,03,15,01,04,13.30
2016,03,15,01,05,19.50
2016,03,15,01,06,17.20
2016,03,15,01,07,16.00
2016,03,15,01,08,15.40
2016,03,15,01,09,13.60
2016,03,15,01,10,10.00
2016,03,15,01,11,8.40
2016,03,15,01,12,9.70
2016,03,15,01,13,12.90
2016,03,15,01,14,9.70
2016,03,15,01,15,9.10
2016,03,15,01,16,9.70
2016,03,15,01,17,10.30
2016,03,15,01,18,8.80
2016,03,15,01,19,10.40
2016,03,15,01,20,7.50
2016,03,15,01,21,10.40
2016,03,15,01,22,14.10
2016,03,15,01,23,12.80
2016,03,15,01,24,11.70
2016,03,15,01,25,9.70
2016,03,15,01,26,11.70
2016,03,15,01,27,8.90
2016,03,15,01,28,7.70
2016,03,15,01,29,11.40
2016,03,15,01,30,13.70
2016,03,15,01,31,8.40
2016,03,15,01,32,5.30
2016,03,15,01,33,6.00
2016,03,15,01,34,7.90
2016,03,15,01,35,12.10
2016,03,15,01,36,8.30
2016,03,15,01,37,8.40
2016,03,15,01,38,6.60
2016,03,15,01,39,6.50
2016,03,15,01,40,4.60
2016,03,15,01,41,3.80
2016,03,15,01,42,0.10
2016,03,15,01,43,0.90
2016,03,15,01,44,4.80
2016,03,15,01,45,3.10
2016,03,15,01,46,3.90
2016,03,15,01,47,6.00
2016,03,15,01,48,8.10
2016,03,15,01,49,6.70
2016,03,15,01,50,4.70
2016,03,15,01,51,6.30
2016,03,15,01,52,7.20
2016,03,15,01,53,10.80
2016,03,15,01,54,8.60
2016,03,15,01,55,7.00
2016,03,15,01,56,4.50
2016,03,15,01,57,2.00
2016,03,15,01,58,0.30
2016,03,15,01,59,1.60
2016,03,15,02,00,3.30
2016,03,15,02,01,5.50
2016,03,15,02,02,3.40
2016,03,15,02,03,4.20
2016,03,15,02,04,4.30
2016,03,15,02,05,6.30
2016,03,15,02,06,6.20
2016,03,15,02,07,7.90
2016,03,15,02,08,7.50
2016,03,15,02,09,7.90
2016,03,15,02,10,3.10
2016,03,15,02,11,5.50
2016,03,15,02,12,6.40
2016,03,15,02,13,7.70
2016,03,15,02,14,5.90
2016,03,15,02,15,4.40
2016,03,15,02,16,1.20
2016,03,15,02,17,1.40
2016,03,15,02,18,3.00
2016,03,15,02,19,4.40
2016,03,15,02,20,3.00
2016,03,15,02,21,2.80
2016,03,15,02,22,3.00
2016,03,15,02,23,2.00
2016,03,15,02,24,0.30
2016,03,15,02,25,0.00
2016,03,15,02,26,0.00
2016,03,15,02,27,2.10
2016,03,15,02,28,2.90
2016,03,15,02,29,3.00
2016,03,15,02,30,3.70
2016,03,15,02,31,6.90
2016,03,15,02,32,6.40
2016,03,15,02,33,3.90
2016,03,15,02,34,4.70
2016,03,15,02,35,4.60
2016,03,15,02,36,3.90
2016,03,15,02,37,4.70
2016,03,15,02,38,9.10
2016,03,15,02,39,5.80
2016,03,15,02,40,5.80
2016,03,15,02,41,5.90
2016,03,15,02,42,4.70
2016,03,15,02,43,5.60
2016,03,15,02,44,7.20
2016,03,15,02,45,8.80
2016,03,15,02,46,10.10
2016,03,15,02,47,10.90
2016,03,15,02,48,7.40
2016,03,15,02,49,5.90
2016,03,15,02,50,6.00
2016,03,15,02,51,6.70
2016,03,15,02,52,7.20
2016,03,15,02,53,6.30
2016,03,15,02,54,7.90
2016,03,15,02,55,7.90
2016,03,15,02,56,6.30
2016,03,15,02,57,7.50
2016,03,15,02,58,6.20
2016,03,15,02,59,7.90
2016,03,15,03,00,6.60
2016,03,15,03,01,3.80
2016,03,15,03,02,7.90
2016,03,15,03,03,6.20
2016,03,15,03,04,8.60
2016,03,15,03,05,7.10
2016,03,15,03,06,6.20
2016,03,15,03,07,8.30
2016,03,15,03,08,6.40
2016,03,15,03,09,6.10
2016,03,15,03,10,6.70
2016,03,15,03,11,5.70
2016,03,15,03,12,7.30
2016,03,15,03,13,5.30
2016,03,15,03,14,6.30
2016,03,15,03,15,5.30
2016,03,15,03,16,4.00
2016,03,15,03,17,5.30
2016,03,15,03,18,3.70
2016,03,15,03,19,5.60
2016,03,15,03,20,7.20
2016,03,15,03,21,6.00
2016,03,15,03,22,5.10
2016,03,15,03,23,9.30
2016,03,15,03,24,5.50
2016,03,15,03,25,6.20
2016,03,15,03,26,5.30
2016,03,15,03,27,7.20
2016,03,15,03,28,4.60
2016,03,15,03,29,3.50
2016,03,15,03,30,4.30
2016,03,15,03,31,4.90
2016,03,15,03,32,4.80
2016,03,15,03,33,2.40
2016,03,15,03,34,2.50
2016,03,15,03,35,3.00
2016,03,15,03,36,2.40
2016,03,15,03,37,4.70
2016,03,15,03,38,4.40
2016,03,15,03,39,6.30
2016,03,15,03,40,3.50
2016,03,15,03,41,3.50
2016,03,15,03,42,2.20
2016,03,15,03,43,5.50
2016,03,15,03,44,7.70
2016,03,15,03,45,1.50
2016,03,15,03,46,4.10
2016,03,15,03,47,6.30
2016,03,15,03,48,7.00
2016,03,15,03,49,7.30
2016,03,15,03,50,4.30
2016,03,15,03,51,3.40
2016,03,15,03,52,8.40
2016,03,15,03,53,6.40
2016,03,15,03,54,7.20
2016,03,15,03,55,6.90
2016,03,15,03,56,8.40
2016,03,15,03,57,8.70
2016,03,15,03,58,9.90
2016,03,15,03,59,7.20
2016,03,15,04,00,6.40
2016,03,15,04,01,6.20
2016,03,15,04,02,4.80
2016,03,15,04,03,5.50
2016,03,15,04,04,3.40
2016,03,15,04,05,6.70
2016,03,15,04,06,8.30
2016,03,15,04,07,10.60
2016,03,15,04,08,3.80
2016,03,15,04,09,4.90
2016,03,15,04,10,3.90
2016,03,15,04,11,6.10
2016,03,15,04,12,10.70
2016,03,15,04,13,8.70
2016,03,15,04,14,7.20
2016,03,15,04,15,10.00
2016,03,15,04,16,8.50
2016,03,15,04,17,6.40
2016,03,15,04,18,9.40
2016,03,15,04,19,6.40
2016,03,15,04,20,8.10
2016,03,15,04,21,11.90
2016,03,15,04,22,9.20
2016,03,15,04,23,8.90
2016,03,15,04,24,7.60
2016,03,15,04,25,6.50
2016,03,15,04,26,5.10
2016,03,15,04,27,8.90
2016,03,15,04,28,9.80
2016,03,15,04,29,7.20
2016,03,15,04,30,7.20
2016,03,15,04,31,6.40
2016,03,15,04,32,5.00
2016,03,15,04,33,7.30
2016,03,15,04,34,6.10
2016,03,15,04,35,6.60
2016,03,15,04,36,8.10
2016,03,15,04,37,6.80
2016,03,15,04,38,7.40
2016,03,15,04,39,9.10
2016,03,15,04,40,6.90
2016,03,15,04,41,8.40
2016,03,15,04,42,8.00
2016,03,15,04,43,7.00
2016,03,15,04,44,10.50
2016,03,15,04,45,6.30
2016,03,15,04,46,5.60
2016,03,15,04,47,4.40
2016,03,15,04,48,7.90
2016,03,15,04,49,7.90
2016,03,15,04,50,5.80
2016,03,15,04,51,7.90
2016,03,15,04,52,6.10
2016,03,15,04,53,6.30
2016,03,15,04,54,5.80
2016,03,15,04,55,6.40
2016,03,15,04,56,6.10
2016,03,15,04,57,6.40
2016,03,15,04,58,4.70
2016,03,15,04,59,6.60
2016,03,15,05,00,4.00
2016,03,15,05,01,7.40
2016,03,15,05,02,6.50
2016,03,15,05,03,4.40
2016,03,15,05,04,5.30
2016,03,15,05,05,4.20
2016,03,15,05,06,5.10
2016,03,15,05,07,3.60
2016,03,15,05,08,4.70
2016,03,15,05,09,3.70
2016,03,15,05,10,2.60
2016,03,15,05,11,4.50
2016,03,15,05,12,3.40
2016,03,15,05,13,7.70
2016,03,15,05,14,4.30
2016,03,15,05,15,5.00
2016,03,15,05,16,4.50
2016,03,15,05,17,4.10
2016,03,15,05,18,3.40
2016,03,15,05,19,4.40
2016,03,15,05,20,4.70
2016,03,15,05,21,1.90
2016,03,15,05,22,3.70
2016,03,15,05,23,4.60
2016,03,15,05,24,5.40
2016,03,15,05,25,3.30
2016,03,15,05,26,1.60
2016,03,15,05,27,2.50
2016,03,15,05,28,2.20
2016,03,15,05,29,4.80
2016,03,15,05,30,5.60
2016,03,15,05,31,3.80
2016,03,15,05,32,5.50
2016,03,15,05,33,6.40
2016,03,15,05,34,5.60
2016,03,15,05,35,4.70
2016,03,15,05,36,8.90
2016,03,15,05,37,7.00
2016,03,15,05,38,5.80
2016,03,15,05,39,5.40
2016,03,15,05,40,7.90
2016,03,15,05,41,6.40
2016,03,15,05,42,6.50
2016,03,15,05,43,7.10
2016,03,15,05,44,7.10
2016,03,15,05,45,5.20
2016,03,15,05,46,4.50
2016,03,15,05,47,6.40
2016,03,15,05,48,5.60
2016,03,15,05,49,4.40
2016,03,15,05,50,6.10
2016,03,15,05,51,4.80
2016,03,15,05,52,5.30
2016,03,15,05,53,4.30
2016,03,15,05,54,4.50
2016,03,15,05,55,4.20
2016,03,15,05,56,4.00
2016,03,15,05,57,5.10
2016,03,15,05,58,3.50
2016,03,15,05,59,3.60
2016,03,15,06,00,4.40
2016,03,15,06,01,8.00
2016,03,15,06,02,7.00
2016,03,15,06,03,9.30
2016,03,15,06,04,8.10
2016,03,15,06,05,9.90
2016,03,15,06,06,7.20
2016,03,15,06,07,6.80
2016,03,15,06,08,6.40
2016,03,15,06,09,6.40
2016,03,15,06,10,6.60
2016,03,15,06,11,6.30
2016,03,15,06,12,5.40
2016,03,15,06,13,5.60
2016,03,15,06,14,7.50
2016,03,15,06,15,7.90
2016,03,15,06,16,6.60
2016,03,15,06,17,7.30
2016,03,15,06,18,6.90
2016,03,15,06,19,7.80
2016,03,15,06,20,6.20
2016,03,15,06,21,5.70
2016,03,15,06,22,5.20
2016,03,15,06,23,5.80
2016,03,15,06,24,4.10
2016,03,15,06,25,3.20
2016,03,15,06,26,3.50
2016,03,15,06,27,2.50
2016,03,15,06,28,2.80
2016,03,15,06,29,3.00
2016,03,15,06,30,2.80
2016,03,15,06,31,1.80
2016,03,15,06,32,5.60
2016,03,15,06,33,6.30
2016,03,15,06,34,2.80
2016,03,15,06,35,3.70
2016,03,15,06,36,1.90
2016,03,15,06,37,2.90
2016,03,15,06,38,3.50
2016,03,15,06,39,4.70
2016,03,15,06,40,3.30
2016,03,15,06,41,4.50
2016,03,15,06,42,5.10
2016,03,15,06,43,4.00
2016,03,15,06,44,5.00
2016,03,15,06,45,5.00
2016,03,15,06,46,3.60
2016,03,15,06,47,4.70
2016,03,15,06,48,3.30
2016,03,15,06,49,5.10
2016,03,15,06,50,4.40
2016,03,15,06,51,4.60
2016,03,15,06,52,5.80
2016,03,15,06,53,4.70
2016,03,15,06,54,3.10
2016,03,15,06,55,3.50
2016,03,15,06,56,4.50
2016,03,15,06,57,3.90
2016,03,15,06,58,4.10
2016,03,15,06,59,4.60
2016,03,15,07,00,5.70
2016,03,15,07,01,4.70
2016,03,15,07,02,5.00
2016,03,15,07,03,4.70
2016,03,15,07,04,3.40
2016,03,15,07,05,4.70
2016,03,15,07,06,3.80
2016,03,15,07,07,4.30
2016,03,15,07,08,4.10
2016,03,15,07,09,3.30
2016,03,15,07,10,2.50
2016,03,15,07,11,4.00
2016,03,15,07,12,4.50
2016,03,15,07,13,4.20
2016,03,15,07,14,2.90
2016,03,15,07,15,4.20
2016,03,15,07,16,2.80
2016,03,15,07,17,2.40
2016,03,15,07,18,1.90
2016,03,15,07,19,3.20
2016,03,15,07,20,3.30
2016,03,15,07,21,3.70
2016,03,15,07,22,3.80
2016,03,15,07,23,5.30
2016,03,15,07,24,3.80
2016,03,15,07,25,4.30
2016,03,15,07,26,5.00
2016,03,15,07,27,4.10
2016,03,15,07,28,5.30
2016,03,15,07,29,4.20
2016,03,15,07,30,3.10
2016,03,15,07,31,3.30
2016,03,15,07,32,4.00
2016,03,15,07,33,3.30
2016,03,15,07,34,2.90
2016,03,15,07,35,2.30
2016,03,15,07,36,0.20
2016,03,15,07,37,0.00
2016,03,15,07,38,0.00
2016,03,15,07,39,0.00
2016,03,15,07,40,0.00
2016,03,15,07,41,0.00
2016,03,15,07,42,0.00
2016,03,15,07,43,0.00
2016,03,15,07,44,0.00
2016,03,15,07,45,0.00
2016,03,15,07,46,0.00
2016,03,15,07,47,0.00
2016,03,15,07,48,0.00
2016,03,15,07,49,0.00
2016,03,15,07,50,0.00
2016,03,15,07,51,0.00
2016,03,15,07,52,0.00
2016,03,15,07,53,0.00
2016,03,15,07,54,0.00
2016,03,15,07,55,0.00
2016,03,15,07,56,0.00
2016,03,15,07,57,0.00
2016,03,15,07,58,0.00
2016,03,15,07,59,0.00
2016,03,15,08,00,0.00
2016,03,15,08,01,0.00
2016,03,15,08,02,0.00
2016,03,15,08,03,0.00
2016,03,15,08,04,0.00
2016,03,15,08,05,0.00
2016,03,15,08,06,0.00
2016,03,15,08,07,0.00
2016,03,15,08,08,0.00
2016,03,15,08,09,0.00
2016,03,15,08,10,0.00
2016,03,15,08,11,0.00
2016,03,15,08,12,0.00
2016,03,15,08,13,0.00
2016,03,15,08,14,0.00
2016,03,15,08,15,0.00
2016,03,15,08,16,0.00
2016,03,15,08,17,0.00
2016,03,15,08,18,0.00
2016,03,15,08,19,0.00
2016,03,15,08,20,0.00
2016,03,15,08,21,0.00
2016,03,15,08,22,0.00
2016,03,15,08,23,0.00
2016,03,15,08,24,0.00
2016,03,15,08,25,0.00
2016,03,15,08,26,0.00
2016,03,15,08,27,0.00
2016,03,15,08,28,0.00
2016,03,15,08,29,0.00
2016,03,15,08,30,0.00
2016,03,15,08,31,0.00
2016,03,15,08,32,0.00
2016,03,15,08,33,0.00
2016,03,15,08,34,0.00
2016,03,15,08,35,0.00
2016,03,15,08,36,0.00
2016,03,15,08,37,0.00
2016,03,15,08,38,0.00
2016,03,15,08,39,0.00
2016,03,15,08,40,0.00
2016,03,15,08,41,0.00
2016,03,15,08,42,0.00
2016,03,15,08,43,0.00
2016,03,15,08,44,0.00
2016,03,15,08,45,0.00
2016,03,15,08,46,0.00
2016,03,15,08,47,0.00
2016,03,15,08,48,0.00
2016,03,15,08,49,0.00
2016,03,15,08,50,0.00
2016,03,15,08,51,0.00
2016,03,15,08,52,0.00
2016,03,15,08,53,0.00
2016,03,15,08,54,0.00
2016,03,15,08,55,0.00
2016,03,15,08,56,0.00
2016,03,15,08,57,0.00
2016,03,15,08,58,0.00
2016,03,15,08,59,0.00
2016,03,15,09,00,0.00
2016,03,15,09,01,0.00
2016,03,15,09,02,0.00
2016,03,15,09,03,0.00
2016,03,15,09,04,0.00
2016,03,15,09,05,0.00
2016,03,15,09,06,0.00
2016,03,15,09,07,0.00
2016,03,15,09,08,0.00
2016,03,15,09,09,0.00
2016,03,15,09,10,0.00
2016,03,15,09,11,0.00
2016,03,15,09,12,0.00
2016,03,15,09,13,0.00
2016,03,15,09,14,0.00
2016,03,15,09,15,0.00
2016,03,15,09,16,0.00
2016,03,15,09,17,0.00
2016,03,15,09,18,0.00
2016,03,15,09,19,0.00
2016,03,15,09,20,0.00
2016,03,15,09,21,0.00
2016,03,15,09,22,0.00
2016,03,15,09,23,0.00
2016,03,15,09,24,0.00
2016,03,15,09,25,0.00
2016,03,15,09,26,0.00
2016,03,15,09,27,0.00
2016,03,15,09,28,0.00
2016,03,15,09,29,0.00
2016,03,15,09,30,0.00
2016,03,15,09,31,0.00
2016,03,15,09,32,0.00
2016,03,15,09,33,0.00
2016,03,15,09,34,0.00
2016,03,15,09,35,0.00
2016,03,15,09,36,0.00
2016,03,15,09,37,0.00
2016,03,15,09,38,0.00
2016,03,15,09,39,0.00
2016,03,15,09,40,0.00
2016,03,15,09,41,1.60
2016,03,15,09,42,4.40
2016,03,15,09,43,4.60
2016,03,15,09,44,2.10
2016,03,15,09,45,1.20
2016,03,15,09,46,1.40
2016,03,15,09,47,0.50
2016,03,15,09,48,0.70
2016,03,15,09,49,1.60
2016,03,15,09,50,0.20
2016,03,15,09,51,2.20
2016,03,15,09,52,2.80
2016,03,15,09,53,3.80
2016,03,15,09,54,2.60
2016,03,15,09,55,2.90
2016,03,15,09,56,4.50
2016,03,15,09,57,4.20
2016,03,15,09,58,4.10
2016,03,15,09,59,4.50
2016,03,15,10,00,4.30
2016,03,15,10,01,3.90
2016,03,15,10,02,3.30
2016,03,15,10,03,4.90
2016,03,15,10,04,3.00
2016,03,15,10,05,0.20
2016,03,15,10,06,0.00
2016,03,15,10,07,4.00
2016,03,15,10,08,5.50
2016,03,15,10,09,3.60
2016,03,15,10,10,3.10
2016,03,15,10,11,1.40
2016,03,15,10,12,4.50
2016,03,15,10,13,8.70
2016,03,15,10,14,8.80
2016,03,15,10,15,7.40
2016,03,15,10,16,6.50
2016,03,15,10,17,5.80
2016,03,15,10,18,5.70
2016,03,15,10,19,4.50
2016,03,15,10,20,5.90
2016,03,15,10,21,2.10
2016,03,15,10,22,5.30
2016,03,15,10,23,5.80
2016,03,15,10,24,8.40
2016,03,15,10,25,6.60
2016,03,15,10,26,4.90
2016,03,15,10,27,5.60
2016,03,15,10,28,3.70
2016,03,15,10,29,2.20
2016,03,15,10,30,4.20
2016,03,15,10,31,4.20
2016,03,15,10,32,6.10
2016,03,15,10,33,8.00
2016,03,15,10,34,4.70
2016,03,15,10,35,8.00
2016,03,15,10,36,7.90
2016,03,15,10,37,5.60
2016,03,15,10,38,6.20
2016,03,15,10,39,7.10
2016,03,15,10,40,5.80
2016,03,15,10,41,9.20
2016,03,15,10,42,9.00
2016,03,15,10,43,10.30
2016,03,15,10,44,6.40
2016,03,15,10,45,4.40
2016,03,15,10,46,4.90
2016,03,15,10,47,10.50
2016,03,15,10,48,8.90
2016,03,15,10,49,9.10
2016,03,15,10,50,8.30
2016,03,15,10,51,7.90
2016,03,15,10,52,4.50
2016,03,15,10,53,8.10
2016,03,15,10,54,10.20
2016,03,15,10,55,5.10
2016,03,15,10,56,3.30
2016,03,15,10,57,6.00
2016,03,15,10,58,10.40
2016,03,15,10,59,5.80
2016,03,15,11,00,5.40
2016,03,15,11,01,1.10
2016,03,15,11,02,8.10
2016,03,15,11,03,13.00
2016,03,15,11,04,9.70
2016,03,15,11,05,6.10
2016,03,15,11,06,8.60
2016,03,15,11,07,4.50
2016,03,15,11,08,3.50
2016,03,15,11,09,0.20
2016,03,15,11,10,0.80
2016,03,15,11,11,3.10
2016,03,15,11,12,7.00
2016,03,15,11,13,7.60
2016,03,15,11,14,9.30
2016,03,15,11,15,12.80
2016,03,15,11,16,8.50
2016,03,15,11,17,6.30
2016,03,15,11,18,5.80
2016,03,15,11,19,3.40
2016,03,15,11,20,4.30
2016,03,15,11,21,2.50
2016,03,15,11,22,5.50
2016,03,15,11,23,8.20
2016,03,15,11,24,7.10
2016,03,15,11,25,9.70
2016,03,15,11,26,8.80
2016,03,15,11,27,7.90
2016,03,15,11,28,6.10
2016,03,15,11,29,6.40
2016,03,15,11,30,13.10
2016,03,15,11,31,16.70
2016,03,15,11,32,9.10
2016,03,15,11,33,7.40
2016,03,15,11,34,4.10
2016,03,15,11,35,4.10
2016,03,15,11,36,5.10
2016,03,15,11,37,7.30
2016,03,15,11,38,4.10
2016,03,15,11,39,3.40
2016,03,15,11,40,7.90
2016,03,15,11,41,5.90
2016,03,15,11,42,9.30
2016,03,15,11,43,11.50
2016,03,15,11,44,8.70
2016,03,15,11,45,8.30
2016,03,15,11,46,9.40
2016,03,15,11,47,8.00
2016,03,15,11,48,8.70
2016,03,15,11,49,9.80
2016,03,15,11,50,11.30
2016,03,15,11,51,12.80
2016,03,15,11,52,12.10
2016,03,15,11,53,5.90
2016,03,15,11,54,4.50
2016,03,15,11,55,4.10
2016,03,15,11,56,6.40
2016,03,15,11,57,8.60
2016,03,15,11,58,14.80
2016,03,15,11,59,12.10
2016,03,15,12,00,8.70
2016,03,15,12,01,8.00
2016,03,15,12,02,9.30
2016,03,15,12,03,7.30
2016,03,15,12,04,5.30
2016,03,15,12,05,7.60
2016,03,15,12,06,6.00
2016,03,15,12,07,6.90
2016,03,15,12,08,8.00
2016,03,15,12,09,8.30
2016,03,15,12,10,7.50
2016,03,15,12,11,8.10
2016,03,15,12,12,8.00
2016,03,15,12,13,7.50
2016,03,15,12,14,6.10
2016,03,15,12,15,4.40
2016,03,15,12,16,9.50
2016,03,15,12,17,5.40
2016,03,15,12,18,4.80
2016,03,15,12,19,4.20
2016,03,15,12,20,5.70
2016,03,15,12,21,5.90
2016,03,15,12,22,8.10
2016,03,15,12,23,7.00
2016,03,15,12,24,12.90
2016,03,15,12,25,15.40
2016,03,15,12,26,12.20
2016,03,15,12,27,11.60
2016,03,15,12,28,11.80
2016,03,15,12,29,8.70
2016,03,15,12,30,5.90
2016,03,15,12,31,6.10
2016,03,15,12,32,10.90
2016,03,15,12,33,17.20
2016,03,15,12,34,11.40
2016,03,15,12,35,7.90
2016,03,15,12,36,1.40
2016,03,15,12,37,9.40
2016,03,15,12,38,12.80
2016,03,15,12,39,10.60
2016,03,15,12,40,10.20
2016,03,15,12,41,6.70
2016,03,15,12,42,8.70
2016,03,15,12,43,9.50
2016,03,15,12,44,10.60
2016,03,15,12,45,11.00
2016,03,15,12,46,11.30
2016,03,15,12,47,8.10
2016,03,15,12,48,4.90
2016,03,15,12,49,5.60
2016,03,15,12,50,6.30
2016,03,15,12,51,6.40
2016,03,15,12,52,8.30
2016,03,15,12,53,11.40
2016,03,15,12,54,6.00
2016,03,15,12,55,5.70
2016,03,15,12,56,8.00
2016,03,15,12,57,14.40
2016,03,15,12,58,13.00
2016,03,15,12,59,11.90
2016,03,15,13,00,9.10
2016,03,15,13,01,13.50
2016,03,15,13,02,8.10
2016,03,15,13,03,11.80
2016,03,15,13,04,9.90
2016,03,15,13,05,5.20
2016,03,15,13,06,2.90
2016,03,15,13,07,10.60
2016,03,15,13,08,9.20
2016,03,15,13,09,9.40
2016,03,15,13,10,10.70
2016,03,15,13,11,10.10
2016,03,15,13,12,10.10
2016,03,15,13,13,7.80
2016,03,15,13,14,8.30
2016,03,15,13,15,8.10
2016,03,15,13,16,10.10
2016,03,15,13,17,9.90
2016,03,15,13,18,8.10
2016,03,15,13,19,12.90
2016,03,15,13,20,11.30
2016,03,15,13,21,11.40
2016,03,15,13,22,7.80
2016,03,15,13,23,13.60
2016,03,15,13,24,15.40
2016,03,15,13,25,12.00
2016,03,15,13,26,5.40
2016,03,15,13,27,9.80
2016,03,15,13,28,10.40
2016,03,15,13,29,7.50
2016,03,15,13,30,15.10
2016,03,15,13,31,12.60
2016,03,15,13,32,8.90
2016,03,15,13,33,11.60
2016,03,15,13,34,10.10
2016,03,15,13,35,10.60
2016,03,15,13,36,13.80
2016,03,15,13,37,12.10
2016,03,15,13,38,14.00
2016,03,15,13,39,15.10
2016,03,15,13,40,10.30
2016,03,15,13,41,11.60
2016,03,15,13,42,10.20
2016,03,15,13,43,11.40
2016,03,15,13,44,8.60
2016,03,15,13,45,8.20
2016,03,15,13,46,8.50
2016,03,15,13,47,10.40
2016,03,15,13,48,13.00
2016,03,15,13,49,15.60
2016,03,15,13,50,13.20
2016,03,15,13,51,6.80
2016,03,15,13,52,12.10
2016,03,15,13,53,11.40
2016,03,15,13,54,14.10
2016,03,15,13,55,13.60
2016,03,15,13,56,14.20
2016,03,15,13,57,14.60
2016,03,15,13,58,16.50
2016,03,15,13,59,14.80
2016,03,15,14,00,13.70
2016,03,15,14,01,15.40
2016,03,15,14,02,10.80
2016,03,15,14,03,11.80
2016,03,15,14,04,11.30
2016,03,15,14,05,13.10
2016,03,15,14,06,11.30
2016,03,15,14,07,8.10
2016,03,15,14,08,8.30
2016,03,15,14,09,11.10
2016,03,15,14,10,8.90
2016,03,15,14,11,8.00
2016,03,15,14,12,10.00
2016,03,15,14,13,7.00
2016,03,15,14,14,4.90
2016,03,15,14,15,10.30
2016,03,15,14,16,15.60
2016,03,15,14,17,14.30
2016,03,15,14,18,8.40
2016,03,15,14,19,11.70
2016,03,15,14,20,20.50
2016,03,15,14,21,19.50
2016,03,15,14,22,8.40
2016,03,15,14,23,11.40
2016,03,15,14,24,19.30
2016,03,15,14,25,14.50
2016,03,15,14,26,12.00
2016,03,15,14,27,6.90
2016,03,15,14,28,10.50
2016,03,15,14,29,13.30
2016,03,15,14,30,16.00
2016,03,15,14,31,10.50
2016,03,15,14,32,7.90
2016,03,15,14,33,14.90
2016,03,15,14,34,13.60
2016,03,15,14,35,12.60
2016,03,15,14,36,8.00
2016,03,15,14,37,12.90
2016,03,15,14,38,11.80
2016,03,15,14,39,17.60
2016,03,15,14,40,14.90
2016,03,15,14,41,11.40
2016,03,15,14,42,14.10
2016,03,15,14,43,10.60
2016,03,15,14,44,11.00
2016,03,15,14,45,13.10
2016,03,15,14,46,14.40
2016,03,15,14,47,10.80
2016,03,15,14,48,8.90
2016,03,15,14,49,13.80
2016,03,15,14,50,8.00
2016,03,15,14,51,12.60
2016,03,15,14,52,12.50
2016,03,15,14,53,16.10
2016,03,15,14,54,18.70
2016,03,15,14,55,13.80
2016,03,15,14,56,16.20
2016,03,15,14,57,9.90
2016,03,15,14,58,9.70
2016,03,15,14,59,10.00
2016,03,15,15,00,12.90
2016,03,15,15,01,9.90
2016,03,15,15,02,17.30
2016,03,15,15,03,15.50
2016,03,15,15,04,16.00
2016,03,15,15,05,17.20
2016,03,15,15,06,13.10
2016,03,15,15,07,11.10
2016,03,15,15,08,13.70
2016,03,15,15,09,11.60
2016,03,15,15,10,14.30
2016,03,15,15,11,11.30
2016,03,15,15,12,17.30
2016,03,15,15,13,20.80
2016,03,15,15,14,19.90
2016,03,15,15,15,16.90
2016,03,15,15,16,16.70
2016,03,15,15,17,11.60
2016,03,15,15,18,16.60
2016,03,15,15,19,10.20
2016,03,15,15,20,11.90
2016,03,15,15,21,14.70
2016,03,15,15,22,12.20
2016,03,15,15,23,12.30
2016,03,15,15,24,14.40
2016,03,15,15,25,13.50
2016,03,15,15,26,10.80
2016,03,15,15,27,13.00
2016,03,15,15,28,14.10
2016,03,15,15,29,14.60
2016,03,15,15,30,20.60
2016,03,15,15,31,15.10
2016,03,15,15,32,9.30
2016,03,15,15,33,9.70
2016,03,15,15,34,9.30
2016,03,15,15,35,13.00
2016,03,15,15,36,10.70
2016,03,15,15,37,16.90
2016,03,15,15,38,14.20
2016,03,15,15,39,17.90
2016,03,15,15,40,16.90
2016,03,15,15,41,14.10
2016,03,15,15,42,11.40
2016,03,15,15,43,12.40
2016,03,15,15,44,9.70
2016,03,15,15,45,9.20
2016,03,15,15,46,11.20
2016,03,15,15,47,8.80
2016,03,15,15,48,17.40
2016,03,15,15,49,18.70
2016,03,15,15,50,16.50
2016,03,15,15,51,8.80
2016,03,15,15,52,20.00
2016,03,15,15,53,19.00
2016,03,15,15,54,21.60
2016,03,15,15,55,14.90
2016,03,15,15,56,19.00
2016,03,15,15,57,15.90
2016,03,15,15,58,15.70
2016,03,15,15,59,14.70
2016,03,15,16,00,16.40
2016,03,15,16,01,19.70
2016,03,15,16,02,22.90
2016,03,15,16,03,19.30
2016,03,15,16,04,19.70
2016,03,15,16,05,18.00
2016,03,15,16,06,16.70
2016,03,15,16,07,19.30
2016,03,15,16,08,12.20
2016,03,15,16,09,13.90
2016,03,15,16,10,17.30
2016,03,15,16,11,17.40
2016,03,15,16,12,13.50
2016,03,15,16,13,17.90
2016,03,15,16,14,15.40
2016,03,15,16,15,15.70
2016,03,15,16,16,19.70
2016,03,15,16,17,15.80
2016,03,15,16,18,16.40
2016,03,15,16,19,14.20
2016,03,15,16,20,21.00
2016,03,15,16,21,15.60
2016,03,15,16,22,15.70
2016,03,15,16,23,11.40
2016,03,15,16,24,12.50
2016,03,15,16,25,16.00
2016,03,15,16,26,15.00
2016,03,15,16,27,15.70
2016,03,15,16,28,15.90
2016,03,15,16,29,15.30
2016,03,15,16,30,15.80
2016,03,15,16,31,15.80
2016,03,15,16,32,17.60
2016,03,15,16,33,17.70
2016,03,15,16,34,15.50
2016,03,15,16,35,14.60
2016,03,15,16,36,13.90
2016,03,15,16,37,13.90
2016,03,15,16,38,17.90
2016,03,15,16,39,13.60
2016,03,15,16,40,12.60
2016,03,15,16,41,15.60
2016,03,15,16,42,17.00
2016,03,15,16,43,15.40
2016,03,15,16,44,17.70
2016,03,15,16,45,21.70
2016,03,15,16,46,22.40
2016,03,15,16,47,17.00
2016,03,15,16,48,15.60
2016,03,15,16,49,13.90
2016,03,15,16,50,11.80
2016,03,15,16,51,14.40
2016,03,15,16,52,19.10
2016,03,15,16,53,8.40
2016,03,15,16,54,14.80
2016,03,15,16,55,13.00
2016,03,15,16,56,18.50
2016,03,15,16,57,22.40
2016,03,15,16,58,17.30
2016,03,15,16,59,14.90
2016,03,15,17,00,18.60
2016,03,15,17,01,15.00
2016,03,15,17,02,18.30
2016,03,15,17,03,19.80
2016,03,15,17,04,16.60
2016,03,15,17,05,19.10
2016,03,15,17,06,14.60
2016,03,15,17,07,18.40
2016,03,15,17,08,17.10
2016,03,15,17,09,20.80
2016,03,15,17,10,15.60
2016,03,15,17,11,15.80
2016,03,15,17,12,15.30
2016,03,15,17,13,18.10
2016,03,15,17,14,17.00
2016,03,15,17,15,14.00
2016,03,15,17,16,13.20
2016,03,15,17,17,10.20
2016,03,15,17,18,10.00
2016,03,15,17,19,14.00
2016,03,15,17,20,16.30
2016,03,15,17,21,17.40
2016,03,15,17,22,13.50
2016,03,15,17,23,18.60
2016,03,15,17,24,14.90
2016,03,15,17,25,11.70
2016,03,15,17,26,6.40
2016,03,15,17,27,7.60
2016,03,15,17,28,5.30
2016,03,15,17,29,8.60
2016,03,15,17,30,7.00
2016,03,15,17,31,9.00
2016,03,15,17,32,11.30
2016,03,15,17,33,12.60
2016,03,15,17,34,10.90
2016,03,15,17,35,13.30
2016,03,15,17,36,14.20
2016,03,15,17,37,15.70
2016,03,15,17,38,12.40
2016,03,15,17,39,10.70
2016,03,15,17,40,10.80
2016,03,15,17,41,20.40
2016,03,15,17,42,20.20
2016,03,15,17,43,15.30
2016,03,15,17,44,15.60
2016,03,15,17,45,14.90
2016,03,15,17,46,13.00
2016,03,15,17,47,12.60
2016,03,15,17,48,10.70
2016,03,15,17,49,11.90
2016,03,15,17,50,7.60